| time (UTC) | temp C | wind direction | speed KPH | gust KPH | rain 1hr cm | rain 24hr cm | rain mn cm | humidity % | barometer mb |
| 20260505022827 | 20 | 169 | 4.8 | 14.5 | 0.00 | 0.00 | 0.00 | 65 | 1014.0 |
| 20260505022600 | 20 | 142 | 4.8 | 14.5 | 0.00 | 0.00 | 0.00 | 64 | 1014.0 |
| 20260505021824 | 20 | 168 | 4.8 | 11.3 | 0.00 | 0.00 | 0.00 | 64 | 1014.1 |
| 20260505021323 | 20 | 175 | 6.4 | 11.3 | 0.00 | 0.00 | 0.00 | 64 | 1014.0 |
| 20260505020822 | 20 | 168 | 6.4 | 12.9 | 0.00 | 0.00 | 0.00 | 64 | 1014.0 |
| 20260505020321 | 20 | 177 | 4.8 | 12.9 | 0.00 | 0.00 | 0.00 | 64 | 1014.1 |
| 20260505015822 | 20 | 154 | 4.8 | 12.9 | 0.00 | 0.00 | 0.00 | 63 | 1014.0 |
| 20260505015323 | 20 | 173 | 4.8 | 12.9 | 0.00 | 0.00 | 0.00 | 63 | 1014.0 |
| 20260505014824 | 20 | 170 | 4.8 | 12.9 | 0.00 | 0.00 | 0.00 | 63 | 1014.0 |
| 20260505014315 | 21 | 171 | 4.8 | 12.9 | 0.00 | 0.00 | 0.00 | 62 | 1014.1 |
| 20260505014047 | 21 | 155 | 4.8 | 12.9 | 0.00 | 0.00 | 0.00 | 62 | 1014.0 |
| 20260505013547 | 21 | 188 | 4.8 | 12.9 | 0.00 | 0.00 | 0.00 | 62 | 1013.8 |
| 20260505012817 | 21 | 219 | 3.2 | 12.9 | 0.00 | 0.00 | 0.00 | 62 | 1014.0 |
| 20260505012311 | 21 | 165 | 3.2 | 11.3 | 0.00 | 0.00 | 0.00 | 62 | 1014.0 |
| 20260505011805 | 21 | 183 | 3.2 | 12.9 | 0.00 | 0.00 | 0.00 | 62 | 1014.1 |
| 20260505011305 | 21 | 164 | 4.8 | 12.9 | 0.00 | 0.00 | 0.00 | 61 | 1014.0 |
| 20260505010806 | 21 | 160 | 4.8 | 12.9 | 0.00 | 0.00 | 0.00 | 61 | 1014.0 |
| 20260505010306 | 21 | 156 | 4.8 | 14.5 | 0.00 | 0.00 | 0.00 | 61 | 1013.9 |
| 20260505005810 | 21 | 155 | 3.2 | 16.1 | 0.00 | 0.00 | 0.00 | 60 | 1013.9 |
| 20260505005806 | 21 | 178 | 3.2 | 14.5 | 0.00 | 0.00 | 0.00 | 61 | 1013.9 |
| 20260505004805 | 21 | 190 | 4.8 | 16.1 | 0.00 | 0.00 | 0.00 | 60 | 1014.0 |
| 20260505004308 | 21 | 147 | 6.4 | 17.7 | 0.00 | 0.00 | 0.00 | 59 | 1014.0 |
| 20260505003806 | 22 | 150 | 4.8 | 17.7 | 0.00 | 0.00 | 0.00 | 59 | 1013.9 |
| 20260505003537 | 22 | 174 | 4.8 | 16.1 | 0.00 | 0.00 | 0.00 | 59 | 1014.1 |
| 20260505002807 | 22 | 161 | 6.4 | 19.3 | 0.00 | 0.00 | 0.00 | 58 | 1014.0 |
| 20260505002532 | 22 | 160 | 4.8 | 19.3 | 0.00 | 0.00 | 0.00 | 58 | 1013.9 |
| 20260505001803 | 22 | 169 | 6.4 | 20.9 | 0.00 | 0.00 | 0.00 | 58 | 1014.0 |
| 20260505001301 | 22 | 140 | 6.4 | 20.9 | 0.00 | 0.00 | 0.00 | 57 | 1014.0 |
| 20260505000801 | 22 | 148 | 3.2 | 12.9 | 0.00 | 0.00 | 0.00 | 57 | 1013.9 |
| 20260505000302 | 22 | 228 | 3.2 | 11.3 | 0.00 | 0.00 | 0.00 | 56 | 1014.0 |
| 20260505000033 | 23 | 165 | 1.6 | 9.7 | 0.00 | 0.00 | 0.00 | 56 | 1014.1 |
| 20260504235304 | 23 | 235 | 3.2 | 14.5 | 0.00 | 0.00 | 0.00 | 56 | 1014.2 |
| 20260504234802 | 23 | 219 | 3.2 | 14.5 | 0.00 | 0.00 | 0.00 | 55 | 1014.3 |
| 20260504234303 | 23 | 167 | 3.2 | 12.9 | 0.00 | 0.00 | 0.00 | 55 | 1014.2 |
| 20260504233754 | 23 | 187 | 3.2 | 12.9 | 0.00 | 0.00 | 0.00 | 54 | 1014.4 |
| 20260504233254 | 23 | 173 | 1.6 | 8.0 | 0.00 | 0.00 | 0.00 | 55 | 1014.4 |
| 20260504232752 | 23 | 153 | 3.2 | 16.1 | 0.00 | 0.00 | 0.00 | 54 | 1014.5 |
| 20260504232251 | 23 | 182 | 3.2 | 16.1 | 0.00 | 0.00 | 0.00 | 53 | 1014.6 |
| 20260504231749 | 23 | 165 | 1.6 | 6.4 | 0.00 | 0.00 | 0.00 | 53 | 1014.7 |
| 20260504231246 | 23 | 217 | 1.6 | 6.4 | 0.00 | 0.00 | 0.00 | 53 | 1014.8 |
| 20260504230745 | 23 | 219 | 3.2 | 12.9 | 0.00 | 0.00 | 0.00 | 53 | 1014.8 |
| 20260504230246 | 23 | 219 | 3.2 | 12.9 | 0.00 | 0.00 | 0.00 | 53 | 1014.8 |
| 20260504225743 | 24 | 193 | 3.2 | 14.5 | 0.00 | 0.00 | 0.00 | 52 | 1014.8 |
| 20260504225243 | 24 | 205 | 4.8 | 17.7 | 0.00 | 0.00 | 0.00 | 54 | 1014.8 |
| 20260504224744 | 24 | 166 | 3.2 | 17.7 | 0.00 | 0.00 | 0.00 | 51 | 1014.9 |
| 20260504224238 | 24 | 150 | 1.6 | 11.3 | 0.00 | 0.00 | 0.00 | 51 | 1014.9 |
| 20260504223740 | 24 | 178 | 3.2 | 9.7 | 0.00 | 0.00 | 0.00 | 51 | 1014.9 |
| 20260504223238 | 24 | 219 | 3.2 | 9.7 | 0.00 | 0.00 | 0.00 | 51 | 1015.0 |
| 20260504222740 | 24 | 273 | 1.6 | 9.7 | 0.00 | 0.00 | 0.00 | 50 | 1014.9 |
| 20260504222239 | 24 | 259 | 3.2 | 9.7 | 0.00 | 0.00 | 0.00 | 52 | 1015.1 |
| 20260504221739 | 25 | 164 | 3.2 | 8.0 | 0.00 | 0.00 | 0.00 | 49 | 1015.1 |
| 20260504221233 | 25 | 204 | 3.2 | 8.0 | 0.00 | 0.00 | 0.00 | 52 | 1015.0 |
| 20260504221006 | 25 | 201 | 3.2 | 8.0 | 0.00 | 0.00 | 0.00 | 50 | 1015.1 |
| 20260504220234 | 25 | 220 | 3.2 | 4.8 | 0.00 | 0.00 | 0.00 | 49 | 1015.2 |
| 20260504215733 | 25 | 238 | 3.2 | 11.3 | 0.00 | 0.00 | 0.00 | 50 | 1015.2 |
| 20260504215234 | 25 | 243 | 3.2 | 11.3 | 0.00 | 0.00 | 0.00 | 52 | 1015.2 |
| 20260504214732 | 25 | 184 | 1.6 | 6.4 | 0.00 | 0.00 | 0.00 | 49 | 1015.4 |
| 20260504214234 | 25 | 205 | 3.2 | 6.4 | 0.00 | 0.00 | 0.00 | 48 | 1015.2 |
| 20260504213727 | 25 | 223 | 4.8 | 9.7 | 0.00 | 0.00 | 0.00 | 48 | 1015.5 |
| 20260504213229 | 25 | 228 | 4.8 | 12.9 | 0.00 | 0.00 | 0.00 | 49 | 1015.5 |
| 20260504212731 | 25 | 233 | 4.8 | 12.9 | 0.00 | 0.00 | 0.00 | 48 | 1015.6 |
| 20260504212228 | 25 | 204 | 4.8 | 16.1 | 0.00 | 0.00 | 0.00 | 47 | 1015.7 |
| 20260504211728 | 25 | 215 | 6.4 | 20.9 | 0.00 | 0.00 | 0.00 | 48 | 1015.7 |
| 20260504211228 | 25 | 202 | 6.4 | 20.9 | 0.00 | 0.00 | 0.00 | 48 | 1015.7 |
| 20260504210722 | 25 | 182 | 3.2 | 14.5 | 0.00 | 0.00 | 0.00 | 47 | 1015.6 |
| 20260504210218 | 25 | 220 | 3.2 | 14.5 | 0.00 | 0.00 | 0.00 | 46 | 1015.6 |
| 20260504205718 | 25 | 182 | 3.2 | 11.3 | 0.00 | 0.00 | 0.00 | 50 | 1015.7 |
| 20260504205216 | 25 | 205 | 4.8 | 16.1 | 0.00 | 0.00 | 0.00 | 50 | 1015.9 |
| 20260504204948 | 25 | 171 | 4.8 | 16.1 | 0.00 | 0.00 | 0.00 | 47 | 1015.8 |
| 20260504204212 | 25 | 117 | 4.8 | 11.3 | 0.00 | 0.00 | 0.00 | 47 | 1015.9 |
| 20260504203712 | 25 | 241 | 3.2 | 11.3 | 0.00 | 0.00 | 0.00 | 47 | 1016.0 |
| 20260504203209 | 25 | 236 | 3.2 | 17.7 | 0.00 | 0.00 | 0.00 | 48 | 1015.9 |
| 20260504202941 | 25 | 198 | 4.8 | 17.7 | 0.00 | 0.00 | 0.00 | 47 | 1016.1 |
| 20260504202210 | 25 | 240 | 3.2 | 11.3 | 0.00 | 0.00 | 0.00 | 52 | 1016.1 |
| 20260504201710 | 25 | 228 | 3.2 | 9.7 | 0.00 | 0.00 | 0.00 | 48 | 1016.1 |
| 20260504201206 | 25 | 219 | 4.8 | 11.3 | 0.00 | 0.00 | 0.00 | 48 | 1016.3 |
| 20260504200938 | 25 | 230 | 3.2 | 12.9 | 0.00 | 0.00 | 0.00 | 46 | 1016.5 |
| 20260504200434 | 25 | 209 | 4.8 | 20.9 | 0.00 | 0.00 | 0.00 | 48 | 1016.6 |
| 20260504195702 | 25 | 244 | 4.8 | 20.9 | 0.00 | 0.00 | 0.00 | 48 | 1016.6 |
| 20260504195200 | 25 | 164 | 3.2 | 16.1 | 0.00 | 0.00 | 0.00 | 48 | 1016.6 |
| 20260504194701 | 25 | 215 | 3.2 | 20.9 | 0.00 | 0.00 | 0.00 | 48 | 1016.6 |
| 20260504194156 | 25 | 173 | 6.4 | 20.9 | 0.00 | 0.00 | 0.00 | 46 | 1016.9 |
| 20260504193654 | 24 | 187 | 6.4 | 16.1 | 0.00 | 0.00 | 0.00 | 49 | 1016.8 |
| 20260504193157 | 25 | 161 | 4.8 | 16.1 | 0.00 | 0.00 | 0.00 | 47 | 1017.0 |
| 20260504192657 | 25 | 215 | 4.8 | 16.1 | 0.00 | 0.00 | 0.00 | 50 | 1017.1 |
| 20260504192154 | 25 | 117 | 4.8 | 16.1 | 0.00 | 0.00 | 0.00 | 47 | 1017.0 |
| 20260504191653 | 25 | 185 | 3.2 | 16.1 | 0.00 | 0.00 | 0.00 | 46 | 1017.1 |
| 20260504191146 | 25 | 247 | 4.8 | 17.7 | 0.00 | 0.00 | 0.00 | 47 | 1017.3 |
| 20260504190647 | 25 | 293 | 4.8 | 17.7 | 0.00 | 0.00 | 0.00 | 47 | 1017.2 |
| 20260504190148 | 25 | 199 | 3.2 | 17.7 | 0.00 | 0.00 | 0.00 | 49 | 1017.3 |
| 20260504185648 | 25 | 186 | 6.4 | 19.3 | 0.00 | 0.00 | 0.00 | 49 | 1017.6 |
| 20260504185148 | 25 | 186 | 6.4 | 19.3 | 0.00 | 0.00 | 0.00 | 45 | 1017.5 |
| 20260504184647 | 25 | 184 | 3.2 | 12.9 | 0.00 | 0.00 | 0.00 | 47 | 1017.6 |
| 20260504184140 | 25 | 221 | 3.2 | 20.9 | 0.00 | 0.00 | 0.00 | 45 | 1017.5 |
| 20260504183910 | 25 | 267 | 3.2 | 20.9 | 0.00 | 0.00 | 0.00 | 45 | 1017.6 |
| 20260504183137 | 25 | 244 | 3.2 | 20.9 | 0.00 | 0.00 | 0.00 | 48 | 1017.6 |
| 20260504182637 | 24 | 192 | 4.8 | 20.9 | 0.00 | 0.00 | 0.00 | 47 | 1017.6 |
| 20260504182134 | 24 | 152 | 6.4 | 16.1 | 0.00 | 0.00 | 0.00 | 46 | 1017.6 |
| 20260504181635 | 25 | 178 | 4.8 | 16.1 | 0.00 | 0.00 | 0.00 | 46 | 1017.7 |
| 20260504181400 | 24 | 238 | 4.8 | 17.7 | 0.00 | 0.00 | 0.00 | 49 | 1017.6 |
| 20260504180629 | 25 | 186 | 4.8 | 17.7 | 0.00 | 0.00 | 0.00 | 45 | 1017.6 |
| 20260504180130 | 24 | 230 | 4.8 | 17.7 | 0.00 | 0.00 | 0.00 | 47 | 1017.7 |
| 20260504175628 | 24 | 218 | 4.8 | 17.7 | 0.00 | 0.00 | 0.00 | 49 | 1017.6 |
| 20260504175128 | 24 | 232 | 6.4 | 27.4 | 0.00 | 0.00 | 0.00 | 48 | 1017.9 |
| 20260504174900 | 24 | 201 | 8.0 | 27.4 | 0.00 | 0.00 | 0.00 | 49 | 1017.9 |
| 20260504174129 | 24 | 169 | 6.4 | 24.1 | 0.00 | 0.00 | 0.00 | 48 | 1018.0 |
| 20260504173858 | 24 | 237 | 4.8 | 16.1 | 0.00 | 0.00 | 0.00 | 47 | 1018.1 |
| 20260504173128 | 24 | 186 | 4.8 | 16.1 | 0.00 | 0.00 | 0.00 | 51 | 1018.2 |
| 20260504172630 | 24 | 217 | 4.8 | 11.3 | 0.00 | 0.00 | 0.00 | 47 | 1018.3 |
| 20260504172127 | 23 | 265 | 9.7 | 22.5 | 0.00 | 0.00 | 0.00 | 47 | 1018.4 |
| 20260504171857 | 23 | 207 | 11.3 | 24.1 | 0.00 | 0.00 | 0.00 | 46 | 1018.4 |
| 20260504171129 | 23 | 188 | 6.4 | 24.1 | 0.00 | 0.00 | 0.00 | 47 | 1018.6 |
| 20260504170854 | 23 | 194 | 4.8 | 17.7 | 0.00 | 0.00 | 0.00 | 46 | 1018.6 |
| 20260504170123 | 23 | 178 | 4.8 | 17.7 | 0.00 | 0.00 | 0.00 | 46 | 1018.6 |
| 20260504160114 | 23 | 252 | 4.8 | 14.5 | 0.00 | 0.00 | 0.00 | 46 | 1019.0 |
| 20260504150559 | 22 | 206 | 4.8 | 19.3 | 0.00 | 0.00 | 0.00 | 47 | 1019.0 |
| 20260504141048 | 21 | 215 | 1.6 | 14.5 | 0.00 | 0.00 | 0.00 | 61 | 1019.0 |
| 20260504140549 | 21 | 136 | 1.6 | 4.8 | 0.00 | 0.00 | 0.00 | 63 | 1019.0 |
| 20260504130536 | 17 | 130 | 0.0 | 0.0 | 0.00 | 0.00 | 0.00 | 77 | 1019.0 |
| 20260504110504 | 11 | 234 | 0.0 | 0.0 | 0.00 | 0.00 | 0.00 | 91 | 1018.2 |
| 20260504100443 | 11 | 234 | 0.0 | 0.0 | 0.00 | 0.00 | 0.00 | 90 | 1018.2 |
| 20260504081932 | 12 | 234 | 0.0 | 0.0 | 0.00 | 0.00 | 0.00 | 88 | 1018.7 |
| 20260504081431 | 12 | 234 | 0.0 | 0.0 | 0.00 | 0.00 | 0.00 | 87 | 1018.7 |
| 20260504080429 | 12 | 234 | 0.0 | 0.0 | 0.00 | 0.00 | 0.00 | 88 | 1018.9 |
| 20260504070303 | 13 | 234 | 0.0 | 0.0 | 0.00 | 0.00 | 0.00 | 85 | 1019.2 |
| 20260504070152 | 13 | 234 | 0.0 | 0.0 | 0.00 | 0.00 | 0.00 | 85 | 1019.2 |
| 20260504050348 | 15 | 234 | 0.0 | 0.0 | 0.00 | 0.00 | 0.00 | 76 | 1019.8 |
| 20260504045847 | 15 | 234 | 0.0 | 0.0 | 0.00 | 0.00 | 0.00 | 76 | 1019.9 |
| 20260504045344 | 15 | 234 | 0.0 | 0.0 | 0.00 | 0.00 | 0.00 | 76 | 1020.0 |
| 20260504045116 | 15 | 234 | 0.0 | 0.0 | 0.00 | 0.00 | 0.00 | 75 | 1019.9 |
| 20260504044338 | 15 | 234 | 0.0 | 0.0 | 0.00 | 0.00 | 0.00 | 74 | 1020.0 |
| 20260504043837 | 15 | 234 | 0.0 | 0.0 | 0.00 | 0.00 | 0.00 | 74 | 1020.0 |
| 20260504043335 | 16 | 234 | 0.0 | 0.0 | 0.00 | 0.00 | 0.00 | 74 | 1020.0 |
| 20260504042833 | 16 | 234 | 0.0 | 0.0 | 0.00 | 0.00 | 0.00 | 73 | 1020.2 |
| 20260504042333 | 16 | 234 | 0.0 | 0.0 | 0.00 | 0.00 | 0.00 | 72 | 1020.3 |
| 20260504041827 | 16 | 234 | 0.0 | 0.0 | 0.00 | 0.00 | 0.00 | 72 | 1020.3 |
| 20260504041324 | 16 | 234 | 0.0 | 3.2 | 0.00 | 0.00 | 0.00 | 72 | 1020.3 |
| 20260504041055 | 16 | 234 | 0.0 | 3.2 | 0.00 | 0.00 | 0.00 | 70 | 1020.3 |
| 20260504040551 | 16 | 234 | 0.0 | 3.2 | 0.00 | 0.00 | 0.00 | 69 | 1020.4 |
| 20260504035821 | 16 | 234 | 0.0 | 3.2 | 0.00 | 0.00 | 0.00 | 68 | 1020.4 |
| 20260504035319 | 17 | 234 | 0.0 | 3.2 | 0.00 | 0.00 | 0.00 | 68 | 1020.3 |
| 20260504034818 | 17 | 234 | 0.0 | 3.2 | 0.00 | 0.00 | 0.00 | 68 | 1020.3 |
| 20260504034317 | 17 | 234 | 0.0 | 3.2 | 0.00 | 0.00 | 0.00 | 67 | 1020.2 |
| 20260504033816 | 17 | 234 | 0.0 | 3.2 | 0.00 | 0.00 | 0.00 | 66 | 1020.2 |
| 20260504033314 | 17 | 234 | 0.0 | 3.2 | 0.00 | 0.00 | 0.00 | 65 | 1020.2 |
| 20260504032816 | 17 | 234 | 1.6 | 3.2 | 0.00 | 0.00 | 0.00 | 65 | 1020.1 |
| 20260504032310 | 17 | 234 | 1.6 | 3.2 | 0.00 | 0.00 | 0.00 | 65 | 1020.2 |
| 20260504031806 | 18 | 234 | 1.6 | 3.2 | 0.00 | 0.00 | 0.00 | 65 | 1020.1 |
| 20260504031305 | 18 | 234 | 1.6 | 1.6 | 0.00 | 0.00 | 0.00 | 64 | 1020.2 |
| 20260504030803 | 18 | 234 | 1.6 | 3.2 | 0.00 | 0.00 | 0.00 | 62 | 1020.3 |
| 20260504030533 | 18 | 234 | 1.6 | 3.2 | 0.00 | 0.00 | 0.00 | 62 | 1020.2 |
| 20260504025802 | 18 | 234 | 1.6 | 4.8 | 0.00 | 0.00 | 0.00 | 60 | 1020.2 |
| 20260504025259 | 18 | 220 | 1.6 | 4.8 | 0.00 | 0.00 | 0.00 | 61 | 1020.1 |
| 20260504024759 | 18 | 141 | 1.6 | 3.2 | 0.00 | 0.00 | 0.00 | 60 | 1020.1 |
| 20260504024259 | 17 | 204 | 0.0 | 3.2 | 0.00 | 0.00 | 0.00 | 68 | 1020.1 |
| 20260504023756 | 17 | 148 | 0.0 | 4.8 | 0.00 | 0.00 | 0.00 | 67 | 1020.0 |
| 20260504023258 | 17 | 148 | 0.0 | 4.8 | 0.00 | 0.00 | 0.00 | 66 | 1020.0 |
| 20260504023022 | 18 | 167 | 0.0 | 4.8 | 0.00 | 0.00 | 0.00 | 63 | 1020.0 |